South Lake Tahoe, CA

2:28 AM PDT on April 29, 2017 (GMT -0700)
Lake Tahoe

Weather History for KTVL - September, 2012

Change the Weather History Date:

Thursday, September 27, 2012

  Actual Average Record
Temperature  
Mean Temperature 55 °F 51 °F  
Max Temperature 76 °F 70 °F 85 °F (2009)
Min Temperature 34 °F 32 °F 23 °F (1971)
Degree Days  
Heating Degree Days 10 14  
Month to date heating degree days 207 287  
Since 1 July heating degree days 394 583  
Cooling Degree Days 0 0  
Month to date cooling degree days 0 0  
Year to date cooling degree days 30 30  
Growing Degree Days 4 (Base 50)    
Moisture  
Dew Point 31 °F    
Average Humidity 51    
Maximum Humidity 82    
Minimum Humidity 19    
Precipitation  
Precipitation 0.00 in - 1.10 in (1986)
Month to date precipitation 0.16  
Year to date precipitation 11.06  
Sea Level Pressure  
Sea Level Pressure 30.08 in    
Wind  
Wind Speed 3 mph (SSE)    
Max Wind Speed 13 mph    
Max Gust Speed 15 mph    
Visibility 10 miles    
Events      
T = Trace of Precipitation, MM = Missing Value Source: NWS Daily Summary

Daily Weather History Graph

Daily Weather History Graph

Search for Another Location

Airport or City:

Trip Planner

Search our weather history database for the weather conditions in past years. The results will help you decide how hot, cold, wet, or windy it might be!

Date:

Astronomy

Sep. 27, 2012 Rise Set
Actual Time 6:52 AM PDT 6:48 PM PDT
Civil Twilight 6:26 AM PDT 7:14 PM PDT
Nautical Twilight 5:55 AM PDT 7:45 PM PDT
Astronomical Twilight 5:23 AM PDT 8:16 PM PDT
Moon 5:21 PM PDT (9/27) 4:28 AM PDT (9/27)
Length of Visible Light 12h 48m
Length of Day
11h 55m
Waxing Gibbous, 94% of the Moon is Illuminated
Sep 27
Waxing Gibbous
Sep 29
Full
Oct 8
Last Quarter
Oct 15
New
Oct 21
First Quarter

Hourly Weather History & Observations

Time (PDT) Temp. Windchill Dew Point Humidity Pressure Visibility Wind Dir Wind Speed Gust Speed Precip Events Conditions
12:53 AM 41.0 °F 39.0 °F 32.0 °F 70% 30.08 in 10.0 mi SSW 3.5 mph - N/A   Clear
1:53 AM 39.9 °F - 32.0 °F 73% 30.09 in 10.0 mi Calm Calm - N/A   Clear
2:53 AM 39.0 °F 36.8 °F 32.0 °F 76% 30.08 in 10.0 mi South 3.5 mph - N/A   Clear
3:53 AM 37.0 °F 34.5 °F 30.9 °F 79% 30.08 in 10.0 mi SSW 3.5 mph - N/A   Clear
4:53 AM 36.0 °F - 30.0 °F 79% 30.09 in 10.0 mi Calm Calm - N/A   Clear
5:53 AM 36.0 °F 33.3 °F 28.9 °F 76% 30.11 in 10.0 mi South 3.5 mph - N/A   Clear
6:53 AM 34.0 °F 31.0 °F 28.9 °F 82% 30.14 in 10.0 mi South 3.5 mph - N/A   Clear
7:53 AM 36.0 °F 33.3 °F 30.0 °F 79% 30.17 in 10.0 mi South 3.5 mph - N/A   Clear
8:53 AM 48.9 °F - 34.0 °F 56% 30.14 in 10.0 mi Calm Calm - N/A   Clear
9:53 AM 62.1 °F - 33.1 °F 34% 30.11 in 10.0 mi Calm Calm - N/A   Clear
11:53 AM 71.1 °F - 36.0 °F 28% 30.09 in 10.0 mi Variable 3.5 mph - N/A   Clear
12:53 PM 71.1 °F - 33.1 °F 25% 30.09 in 10.0 mi NNE 6.9 mph - N/A   Clear
1:53 PM 73.9 °F - 32.0 °F 21% 30.06 in 10.0 mi NNE 8.1 mph - N/A   Clear
2:53 PM 75.0 °F - 30.9 °F 20% 30.04 in 10.0 mi NNE 8.1 mph - N/A   Clear
3:53 PM 73.9 °F - 30.0 °F 20% 30.04 in 10.0 mi NNE 12.7 mph - N/A   Clear
4:53 PM 73.9 °F - 28.0 °F 18% 30.03 in 10.0 mi Variable 3.5 mph - N/A   Mostly Cloudy
5:53 PM 69.1 °F - 30.9 °F 24% 30.04 in 10.0 mi Calm Calm - N/A   Scattered Clouds
6:53 PM 64.9 °F - 32.0 °F 29% 30.06 in 10.0 mi Calm Calm - N/A   Partly Cloudy
7:53 PM 57.9 °F - 30.9 °F 36% 30.10 in 10.0 mi Calm Calm - N/A   Clear
8:53 PM 54.0 °F - 30.0 °F 40% 30.09 in 10.0 mi Calm Calm - N/A   Clear
9:53 PM 51.1 °F - 30.0 °F 44% 30.07 in 10.0 mi Calm Calm - N/A   Clear
10:53 PM 48.0 °F - 30.0 °F 50% 30.08 in 10.0 mi Calm Calm - N/A   Clear
11:53 PM 45.0 °F - 30.0 °F 56% 30.07 in 10.0 mi Calm Calm - N/A   Clear